This is the latest recevied weather packets stored in our database for station/object W7TJC. If no packets are shown the sender has not sent any weather packets the latest 10 day(s).
| Time | Temp. | Humidity | Pressure | Rain* | Wind** | Luminosity | Snow |
|---|---|---|---|---|---|---|---|
| 1777741304 | 15° C | 78% | 1018.3 hPa | 0 mm | - | 32 W/m² | - |
| 1777741000 | 14.44° C | 78% | 1018 hPa | 0 mm | - | 28 W/m² | - |
| 1777740698 | 14.44° C | 79% | 1018.1 hPa | 0 mm | - | 27 W/m² | - |
| 1777740393 | 13.89° C | 80% | 1018 hPa | 0 mm | - | 26 W/m² | - |
| 1777740090 | 13.89° C | 81% | 1018.2 hPa | 0 mm | - | 26 W/m² | - |
| 1777739786 | 13.33° C | 82% | 1018.3 hPa | 0 mm | - | 26 W/m² | - |
| 1777739483 | 13.33° C | 83% | 1018.3 hPa | 0 mm | - | 25 W/m² | - |
| 1777739180 | 12.78° C | 84% | 1018.3 hPa | 0 mm | - | 88 W/m² | - |
| 1777738877 | 12.78° C | 85% | 1018.2 hPa | 0 mm | - | 122 W/m² | - |
| 1777738574 | 12.22° C | 85% | 1018.2 hPa | 0 mm | - | 37 W/m² | - |
| 1777738271 | 12.22° C | 86% | 1018.1 hPa | 0 mm | - | 54 W/m² | - |
| 1777737969 | 11.67° C | 86% | 1018.3 hPa | 0 mm | - | 69 W/m² | - |
| 1777737668 | 11.67° C | 87% | 1018.3 hPa | 0 mm | - | 47 W/m² | - |
| 1777737366 | 11.11° C | 89% | 1018.3 hPa | 0 mm | - | 58 W/m² | - |
| 1777737062 | 10.56° C | 90% | 1018.4 hPa | 0 mm | - | 102 W/m² | - |
| 1777736758 | 10.56° C | 91% | 1018.4 hPa | 0 mm | - | 58 W/m² | - |
| 1777736130 | 10° C | 92% | 1018.3 hPa | 0 mm | - | 25 W/m² | - |
| 1777735828 | 10° C | 93% | 1018.7 hPa | 0 mm | - | 17 W/m² | - |
| 1777735525 | 10° C | 93% | 1018.5 hPa | 0 mm | - | 18 W/m² | - |
| 1777735222 | 10° C | 93% | 1018.4 hPa | 0 mm | - | 22 W/m² | - |
| 1777734919 | 9.44° C | 94% | 1018.2 hPa | 0 mm | - | 32 W/m² | - |
| 1777734616 | 9.44° C | 94% | 1018.1 hPa | 0 mm | - | 22 W/m² | - |
| 1777734314 | 9.44° C | 94% | 1018 hPa | 0 mm | - | 12 W/m² | - |
| 1777734010 | 9.44° C | 95% | 1018.2 hPa | 0 mm | - | 14 W/m² | - |
| 1777733706 | 9.44° C | 95% | 1018.2 hPa | 0 mm | - | 21 W/m² | - |
* Rain latest hour (hover to see other rain measurements)
** Current wind speed in m/s (hover to see current wind gust speed)